Portland Hillsboro, OR

2:28 PM PDT on May 23, 2017 (GMT -0700)
Portland-Hillsboro

Weather History for KHIO - October, 2012

Change the Weather History Date:

Friday, October 5, 2012

  Actual Average Record
Temperature  
Mean Temperature 59 °F 55 °F  
Max Temperature 73 °F 67 °F 91 °F (1952)
Min Temperature 45 °F 42 °F 31 °F (1974)
Degree Days  
Heating Degree Days 6 10  
Month to date heating degree days 31 48  
Since 1 July heating degree days 211 310  
Cooling Degree Days 0 0  
Month to date cooling degree days 0 0  
Year to date cooling degree days 232 197  
Growing Degree Days 12 (Base 50)    
Moisture  
Dew Point 23 °F    
Average Humidity 25    
Maximum Humidity 36    
Minimum Humidity 14    
Precipitation  
Precipitation 0.00 in 0.07 in 0.90 in (1950)
Month to date precipitation 0.00 0.33  
Year to date precipitation 22.49 23.84  
Snow  
Snow 0.00 in - - ()
Month to date snowfall 0.0  
Since 1 July snowfall 0.0  
Since 1 September snowfall 0.0  
Snow Depth 0.00 in    
Sea Level Pressure  
Sea Level Pressure 30.16 in    
Wind  
Wind Speed 11 mph (NE)    
Max Wind Speed 23 mph    
Max Gust Speed 30 mph    
Visibility 10 miles    
Events      
T = Trace of Precipitation, MM = Missing Value Source: NWS Daily Summary

Daily Weather History Graph

Daily Weather History Graph

Search for Another Location

Airport or City:

Trip Planner

Search our weather history database for the weather conditions in past years. The results will help you decide how hot, cold, wet, or windy it might be!

Date:

Astronomy

Oct. 05, 2012 Rise Set
Actual Time 7:15 AM PDT 6:43 PM PDT
Civil Twilight 6:46 AM PDT 7:12 PM PDT
Nautical Twilight 6:11 AM PDT 7:47 PM PDT
Astronomical Twilight 5:37 AM PDT 8:21 PM PDT
Moon 9:57 PM PDT (10/5) 12:42 PM PDT (10/5)
Length of Visible Light 12h 26m
Length of Day
11h 27m
Waning Gibbous, 73% of the Moon is Illuminated
Oct 5
Waning Gibbous
Oct 8
Last Quarter
Oct 15
New
Oct 21
First Quarter
Oct 29
Full

Hourly Weather History & Observations

Time (PDT) Temp. Dew Point Humidity Pressure Visibility Wind Dir Wind Speed Gust Speed Precip Events Conditions
12:53 AM 55.9 °F 24.1 °F 29% 30.18 in - NE 5.8 mph - N/A   Clear
1:53 AM 53.1 °F 24.1 °F 32% 30.18 in - NE 4.6 mph - N/A   Clear
2:53 AM 54.0 °F 25.0 °F 33% 30.18 in - NNE 3.5 mph - N/A   Clear
3:53 AM 51.1 °F 25.0 °F 36% 30.17 in - NNE 4.6 mph - N/A   Clear
4:53 AM 54.0 °F 25.0 °F 33% 30.17 in - NNE 6.9 mph - N/A   Clear
5:53 AM 53.1 °F 24.1 °F 32% 30.18 in 10.0 mi NE 4.6 mph - N/A   Clear
6:53 AM 50.0 °F 24.1 °F 36% 30.17 in - NNE 5.8 mph - N/A   Clear
7:53 AM 53.1 °F 25.0 °F 34% 30.18 in 10.0 mi NNE 8.1 mph - N/A   Clear
8:53 AM 57.0 °F 26.1 °F 30% 30.19 in 10.0 mi ENE 8.1 mph - N/A   Clear
9:53 AM 62.1 °F 26.1 °F 25% 30.19 in - NE 9.2 mph 21.9 mph N/A   Clear
10:53 AM 64.9 °F 26.1 °F 23% 30.19 in 10.0 mi ENE 12.7 mph 26.5 mph N/A   Clear
11:53 AM 69.1 °F 24.1 °F 18% 30.18 in 10.0 mi ENE 17.3 mph 25.3 mph N/A   Clear
12:53 PM 71.1 °F 21.9 °F 16% 30.17 in 10.0 mi ENE 20.7 mph 27.6 mph N/A   Clear
1:53 PM 73.0 °F 21.9 °F 15% 30.15 in 10.0 mi ENE 20.7 mph - N/A   Clear
2:53 PM 72.0 °F 21.0 °F 15% 30.13 in 10.0 mi ENE 15.0 mph 28.8 mph N/A   Clear
3:53 PM 71.1 °F 19.9 °F 14% 30.13 in 10.0 mi ENE 18.4 mph 25.3 mph N/A   Clear
4:53 PM 70.0 °F 19.9 °F 15% 30.12 in 10.0 mi ENE 18.4 mph 26.5 mph N/A   Clear
6:53 PM 64.9 °F 21.0 °F 19% 30.13 in 10.0 mi ENE 13.8 mph 20.7 mph N/A   Clear
7:53 PM 63.0 °F 21.9 °F 21% 30.14 in 10.0 mi ENE 15.0 mph - N/A   Clear
8:53 PM 61.0 °F 21.0 °F 21% 30.14 in 10.0 mi ENE 10.4 mph 17.3 mph N/A   Clear
9:53 PM 60.1 °F 21.0 °F 22% 30.15 in 10.0 mi ENE 10.4 mph - N/A   Clear
10:53 PM 59.0 °F 21.0 °F 23% 30.16 in 10.0 mi ENE 5.8 mph - N/A   Clear
11:53 PM 57.9 °F 21.0 °F 24% 30.16 in 10.0 mi NE 4.6 mph - N/A   Clear